XIO235 ELLX-BIAR

Flight info

Callsign XIO235
Flight time N/A
Altitude 43000
Route DIK M624 BUB L608 DENUT L610 GILDA M14 STOAT L613 MOGLI UP6 TUPEM DCT FYNER DCT KUVOX DCT AKIVO/M087F430 DCT 62N013W DCT BOTOQ DCT PEXIL
Aircraft GA7C/M-SDE2E3FGHIJ2J5M1P2RWXYZ/LB1D1

Departure

Time N/A
Airport Luxembourg-Findel International Airport (ELLX)

Arrival

Time 2026-05-01 09:17
Airport Akureyri International Airport (BIAR)
Time Latitude Longitude Altitude Speed Heading
2026-05-01 07:23 53.07068 -1.48616 43245 ft 531 kts 306°
2026-05-01 07:24 53.13688 -1.63412 43183 ft 531 kts 305°
2026-05-01 07:24 53.18067 -1.73243 43185 ft 531 kts 305°
2026-05-01 07:25 53.22472 -1.83176 43186 ft 532 kts 305°
2026-05-01 07:25 53.26568 -1.93431 43234 ft 530 kts 301°
2026-05-01 07:26 53.30535 -2.03843 43271 ft 531 kts 301°
2026-05-01 07:26 53.34491 -2.14286 43299 ft 531 kts 301°
2026-05-01 07:27 53.38441 -2.24750 43300 ft 531 kts 301°
2026-05-01 07:27 53.42353 -2.35162 43297 ft 531 kts 301°
2026-05-01 07:27 53.44324 -2.40425 43156 ft 531 kts 301°
2026-05-01 07:28 53.46291 -2.45676 43156 ft 531 kts 301°
2026-05-01 07:28 53.48603 -2.50513 43133 ft 533 kts 315°
2026-05-01 07:28 53.51558 -2.54264 43156 ft 534 kts 327°
2026-05-01 07:29 53.58133 -2.60172 43155 ft 538 kts 333°
2026-05-01 07:29 53.64718 -2.66179 43159 ft 537 kts 327°
2026-05-01 07:30 53.71091 -2.72746 43163 ft 538 kts 330°
2026-05-01 07:30 53.77674 -2.78928 43151 ft 546 kts 328°
2026-05-01 07:30 53.80924 -2.82244 43303 ft 546 kts 328°
2026-05-01 07:31 53.84188 -2.85516 43295 ft 545 kts 329°
2026-05-01 07:32 54.00542 -3.01614 43214 ft 544 kts 329°
2026-05-01 07:33 54.10347 -3.11388 43165 ft 543 kts 329°
2026-05-01 07:33 54.20151 -3.21193 43160 ft 544 kts 328°
2026-05-01 07:34 54.29949 -3.31062 43149 ft 546 kts 328°
2026-05-01 07:35 54.36491 -3.37683 43161 ft 545 kts 328°
2026-05-01 07:35 54.43014 -3.44308 43153 ft 545 kts 328°
2026-05-01 07:36 54.49494 -3.50914 43161 ft 544 kts 328°
2026-05-01 07:36 54.55975 -3.57545 43152 ft 541 kts 328°
2026-05-01 07:37 54.65683 -3.67526 43150 ft 541 kts 328°
2026-05-01 07:37 54.72154 -3.74210 43148 ft 542 kts 328°
2026-05-01 07:38 54.78669 -3.80964 43164 ft 546 kts 328°
2026-05-01 07:39 54.88392 -3.91094 43163 ft 546 kts 328°
2026-05-01 07:39 54.98136 -4.01304 43153 ft 545 kts 328°
2026-05-01 07:40 55.04630 -4.08139 43158 ft 545 kts 328°
2026-05-01 07:40 55.11107 -4.14983 43154 ft 544 kts 328°
2026-05-01 07:41 55.17591 -4.21862 43151 ft 545 kts 328°
2026-05-01 07:42 55.27316 -4.32226 43201 ft 546 kts 328°
2026-05-01 07:42 55.33809 -4.39182 43264 ft 547 kts 328°
2026-05-01 07:43 55.40275 -4.46134 43320 ft 547 kts 327°
2026-05-01 07:43 55.50029 -4.56674 43354 ft 547 kts 327°
2026-05-01 07:44 55.56509 -4.63710 43181 ft 546 kts 327°
2026-05-01 07:44 55.62938 -4.70719 43152 ft 546 kts 327°
2026-05-01 07:45 55.69400 -4.77791 43157 ft 546 kts 327°
2026-05-01 07:45 55.75872 -4.84901 43158 ft 546 kts 327°
2026-05-01 07:46 55.82324 -4.92019 43162 ft 546 kts 327°
2026-05-01 07:47 55.92005 -5.02751 43156 ft 546 kts 327°
2026-05-01 07:47 55.98453 -5.09932 43155 ft 546 kts 327°
2026-05-01 07:48 56.08077 -5.20707 43153 ft 545 kts 327°
2026-05-01 07:48 56.14515 -5.27952 43138 ft 545 kts 327°
2026-05-01 07:49 56.24146 -5.38841 43331 ft 545 kts 326°
2026-05-01 07:50 56.30520 -5.46085 43325 ft 545 kts 326°
2026-05-01 07:50 56.40134 -5.57067 43325 ft 545 kts 326°
2026-05-01 07:51 56.46541 -5.64421 43330 ft 545 kts 326°
2026-05-01 07:52 56.56155 -5.75516 43327 ft 545 kts 326°
2026-05-01 07:52 56.62558 -5.82940 43328 ft 546 kts 326°
2026-05-01 07:53 56.72082 -5.94042 43322 ft 542 kts 326°
2026-05-01 07:53 56.78433 -6.01483 43321 ft 542 kts 326°
2026-05-01 07:55 56.94306 -6.20214 43320 ft 543 kts 326°
2026-05-01 07:56 57.10121 -6.39068 43312 ft 544 kts 325°
2026-05-01 07:57 57.19641 -6.50510 43313 ft 544 kts 325°
2026-05-01 07:58 57.32317 -6.65861 43312 ft 545 kts 325°
2026-05-01 07:59 57.41534 -6.77103 42466 ft 546 kts 325°
2026-05-01 07:59 57.47460 -6.84367 42743 ft 509 kts 326°
2026-05-01 08:00 57.59271 -6.98931 42994 ft 512 kts 326°
2026-05-01 08:01 57.71135 -7.13677 42992 ft 511 kts 326°
2026-05-01 08:02 57.80017 -7.24794 42996 ft 512 kts 326°
2026-05-01 08:03 57.88898 -7.35978 42997 ft 512 kts 326°
2026-05-01 08:03 57.97739 -7.47179 43001 ft 513 kts 326°
2026-05-01 08:04 58.08657 -7.60952 43001 ft 514 kts 330°
2026-05-01 08:05 58.18179 -7.70043 43012 ft 513 kts 333°
2026-05-01 08:06 58.27764 -7.79163 43012 ft 514 kts 333°
2026-05-01 08:07 58.40531 -7.91454 43009 ft 514 kts 333°
2026-05-01 08:08 58.50103 -8.00731 43009 ft 514 kts 333°
2026-05-01 08:09 58.62818 -8.13137 43008 ft 514 kts 333°
2026-05-01 08:09 58.69202 -8.19405 43007 ft 515 kts 333°
2026-05-01 08:10 58.81948 -8.31996 43007 ft 515 kts 333°
2026-05-01 08:11 58.94681 -8.44678 43004 ft 515 kts 333°
2026-05-01 08:12 59.04187 -8.54217 43004 ft 515 kts 332°
2026-05-01 08:13 59.13739 -8.63863 43004 ft 515 kts 332°
2026-05-01 08:13 59.23287 -8.73564 43003 ft 515 kts 332°
2026-05-01 08:14 59.29600 -8.80014 43003 ft 515 kts 332°
2026-05-01 08:14 59.35950 -8.86528 43001 ft 515 kts 332°
2026-05-01 08:15 59.45481 -8.96358 43000 ft 515 kts 332°
2026-05-01 08:16 59.51826 -9.02937 42999 ft 515 kts 332°
2026-05-01 08:16 59.58163 -9.09535 43000 ft 515 kts 332°
2026-05-01 08:17 59.64461 -9.16120 42999 ft 515 kts 332°
2026-05-01 08:17 59.70796 -9.22773 42998 ft 515 kts 332°
2026-05-01 08:18 59.77125 -9.29450 42997 ft 515 kts 332°
2026-05-01 08:19 59.89797 -9.42904 42996 ft 515 kts 332°
2026-05-01 08:19 59.96088 -9.49745 42990 ft 515 kts 327°
2026-05-01 08:20 60.01724 -9.58381 43009 ft 514 kts 321°
2026-05-01 08:20 60.07343 -9.67275 43011 ft 515 kts 321°
2026-05-01 08:21 60.12955 -9.76250 43010 ft 516 kts 321°
2026-05-01 08:21 60.18566 -9.85233 43010 ft 516 kts 321°
2026-05-01 08:22 60.24175 -9.94266 43009 ft 516 kts 321°
2026-05-01 08:22 60.29768 -10.03312 43008 ft 515 kts 321°
2026-05-01 08:23 60.35322 -10.12336 43007 ft 515 kts 321°
2026-05-01 08:23 60.40900 -10.21439 43007 ft 515 kts 321°
2026-05-01 08:24 60.46479 -10.30584 43007 ft 515 kts 321°
2026-05-01 08:24 60.52049 -10.39756 43005 ft 515 kts 321°
2026-05-01 08:25 60.57614 -10.48965 43005 ft 515 kts 321°
2026-05-01 08:25 60.63173 -10.58203 43004 ft 515 kts 321°
2026-05-01 08:26 60.68725 -10.67475 43005 ft 516 kts 321°
2026-05-01 08:26 60.74269 -10.76774 43005 ft 516 kts 320°
2026-05-01 08:27 60.79807 -10.86107 43005 ft 516 kts 320°
2026-05-01 08:27 60.85300 -10.95406 43006 ft 516 kts 320°
2026-05-01 08:28 60.90823 -11.04798 43006 ft 516 kts 320°
2026-05-01 08:28 60.96348 -11.14241 43007 ft 516 kts 320°
2026-05-01 08:29 61.01859 -11.23703 43006 ft 516 kts 320°
2026-05-01 08:29 61.07362 -11.33194 43007 ft 516 kts 320°
2026-05-01 08:30 61.12868 -11.42735 43007 ft 516 kts 320°
2026-05-01 08:30 61.18366 -11.52306 43007 ft 516 kts 320°
2026-05-01 08:31 61.23853 -11.61906 43007 ft 516 kts 320°
2026-05-01 08:31 61.29337 -11.71545 43008 ft 516 kts 320°
2026-05-01 08:32 61.34817 -11.81224 43008 ft 516 kts 320°
2026-05-01 08:32 61.40252 -11.90867 43008 ft 516 kts 319°
2026-05-01 08:33 61.45717 -12.00610 43010 ft 516 kts 319°
2026-05-01 08:33 61.51170 -12.10377 43008 ft 516 kts 319°
2026-05-01 08:34 61.56620 -12.20187 43008 ft 516 kts 319°
2026-05-01 08:34 61.62059 -12.30025 43011 ft 516 kts 319°
2026-05-01 08:35 61.67489 -12.39894 43009 ft 516 kts 319°
2026-05-01 08:35 61.72914 -12.49802 43010 ft 516 kts 319°
2026-05-01 08:36 61.78337 -12.59752 43009 ft 516 kts 319°
2026-05-01 08:36 61.83722 -12.69681 43010 ft 516 kts 319°
2026-05-01 08:37 61.89126 -12.79694 43013 ft 516 kts 319°
2026-05-01 08:37 61.94529 -12.89755 43011 ft 516 kts 319°
2026-05-01 08:38 61.99948 -12.99765 43000 ft 516 kts 322°
2026-05-01 08:38 62.05938 -13.08143 43012 ft 515 kts 327°
2026-05-01 08:39 62.11943 -13.16545 43011 ft 516 kts 327°
2026-05-01 08:39 62.17970 -13.24894 43010 ft 516 kts 327°
2026-05-01 08:40 62.26947 -13.37491 43012 ft 516 kts 327°
2026-05-01 08:40 62.32956 -13.45967 43011 ft 516 kts 327°
2026-05-01 08:41 62.38960 -13.54474 43011 ft 516 kts 326°
2026-05-01 08:41 62.44954 -13.63006 43011 ft 516 kts 326°
2026-05-01 08:42 62.50950 -13.71587 43012 ft 516 kts 326°
2026-05-01 08:42 62.56932 -13.80190 43011 ft 516 kts 326°
2026-05-01 08:43 62.62873 -13.88774 43012 ft 516 kts 326°
2026-05-01 08:43 62.68843 -13.97442 43009 ft 516 kts 326°
2026-05-01 08:44 62.74820 -14.06162 43012 ft 516 kts 326°
2026-05-01 08:44 62.80787 -14.14912 43011 ft 516 kts 326°
2026-05-01 08:45 62.86742 -14.23690 43013 ft 516 kts 326°
2026-05-01 08:45 62.92696 -14.32509 43011 ft 516 kts 326°
2026-05-01 08:46 62.98612 -14.41316 43011 ft 516 kts 326°
2026-05-01 08:46 63.04554 -14.50204 43012 ft 516 kts 326°
2026-05-01 08:47 63.10490 -14.59128 43011 ft 516 kts 326°
2026-05-01 08:47 63.16421 -14.68089 43011 ft 516 kts 326°
2026-05-01 08:48 63.22343 -14.77083 43011 ft 516 kts 325°
2026-05-01 08:48 63.28263 -14.86121 43009 ft 516 kts 325°
2026-05-01 08:49 63.34182 -14.95201 43009 ft 516 kts 325°
2026-05-01 08:49 63.40049 -15.04247 43009 ft 516 kts 325°
2026-05-01 08:50 63.45953 -15.13397 43011 ft 516 kts 325°
2026-05-01 08:50 63.51847 -15.22579 43010 ft 516 kts 325°
2026-05-01 08:51 63.57741 -15.31809 43010 ft 516 kts 325°
2026-05-01 08:51 63.63628 -15.41074 43011 ft 516 kts 325°
2026-05-01 08:52 63.68509 -15.48793 43011 ft 516 kts 325°
2026-05-01 08:52 63.74379 -15.58119 43012 ft 516 kts 324°
2026-05-01 08:53 63.80245 -15.67486 43011 ft 516 kts 324°
2026-05-01 08:53 63.86112 -15.76906 43012 ft 516 kts 324°
2026-05-01 08:54 63.91970 -15.86361 42649 ft 520 kts 324°
2026-05-01 08:54 63.94911 -15.91124 41831 ft 516 kts 324°
2026-05-01 08:54 63.97820 -15.95851 41038 ft 512 kts 324°
2026-05-01 08:55 64.00667 -16.00487 40184 ft 509 kts 324°
2026-05-01 08:55 64.03544 -16.05187 39272 ft 508 kts 324°
2026-05-01 08:55 64.06411 -16.09878 38398 ft 505 kts 324°
2026-05-01 08:55 64.09257 -16.14549 37542 ft 503 kts 324°
2026-05-01 08:56 64.12094 -16.19217 36702 ft 501 kts 324°
2026-05-01 08:56 64.14919 -16.23876 35871 ft 502 kts 324°
2026-05-01 08:56 64.17771 -16.28598 35174 ft 506 kts 324°
2026-05-01 08:56 64.20623 -16.33323 34494 ft 506 kts 324°
2026-05-01 08:57 64.23484 -16.38081 33818 ft 508 kts 324°
2026-05-01 08:57 64.26356 -16.42870 33139 ft 512 kts 324°
2026-05-01 08:57 64.29261 -16.47723 32449 ft 514 kts 324°
2026-05-01 08:57 64.32134 -16.52539 31768 ft 510 kts 324°
2026-05-01 08:58 64.34992 -16.57340 31091 ft 505 kts 324°
2026-05-01 08:58 64.37784 -16.62041 30430 ft 500 kts 324°
2026-05-01 08:58 64.40579 -16.66767 29767 ft 494 kts 324°
2026-05-01 08:58 64.43341 -16.71440 29113 ft 490 kts 323°
2026-05-01 08:59 64.46082 -16.76094 28463 ft 485 kts 323°
2026-05-01 08:59 64.48791 -16.80705 27821 ft 481 kts 323°
2026-05-01 08:59 64.51478 -16.85286 27184 ft 477 kts 323°
2026-05-01 08:59 64.54144 -16.89850 26552 ft 472 kts 323°
2026-05-01 09:00 64.56778 -16.94364 25924 ft 468 kts 323°
2026-05-01 09:00 64.59381 -16.98838 25304 ft 462 kts 323°
2026-05-01 09:00 64.61953 -17.03272 24696 ft 458 kts 323°
2026-05-01 09:00 64.64469 -17.07614 24096 ft 454 kts 323°
2026-05-01 09:01 64.66992 -17.11984 23494 ft 450 kts 323°
2026-05-01 09:01 64.69497 -17.16332 22897 ft 446 kts 323°
2026-05-01 09:01 64.71975 -17.20639 22307 ft 442 kts 323°
2026-05-01 09:01 64.74428 -17.24920 21724 ft 438 kts 323°
2026-05-01 09:02 64.76861 -17.29168 21137 ft 434 kts 323°
2026-05-01 09:02 64.79267 -17.33382 20576 ft 430 kts 323°
2026-05-01 09:02 64.81651 -17.37571 19997 ft 425 kts 323°
2026-05-01 09:02 64.84012 -17.41719 19434 ft 422 kts 323°
2026-05-01 09:03 64.86347 -17.45839 18876 ft 413 kts 323°
2026-05-01 09:03 64.88614 -17.49847 18328 ft 402 kts 323°
2026-05-01 09:03 64.90814 -17.53739 17804 ft 391 kts 323°
2026-05-01 09:03 64.92960 -17.57551 17216 ft 383 kts 323°
2026-05-01 09:04 64.95045 -17.61256 16893 ft 368 kts 323°
2026-05-01 09:04 64.97070 -17.64867 16422 ft 360 kts 323°
2026-05-01 09:04 64.99046 -17.68393 15951 ft 353 kts 323°
2026-05-01 09:04 65.00984 -17.71858 15487 ft 346 kts 323°
2026-05-01 09:05 65.02885 -17.75267 15030 ft 339 kts 323°
2026-05-01 09:05 65.04746 -17.78606 14586 ft 333 kts 323°
2026-05-01 09:05 65.06558 -17.81866 14151 ft 328 kts 323°
2026-05-01 09:05 65.08360 -17.85109 13719 ft 322 kts 323°
2026-05-01 09:06 65.10109 -17.88268 13286 ft 309 kts 322°
2026-05-01 09:06 65.11811 -17.91344 12892 ft 306 kts 322°
2026-05-01 09:06 65.13501 -17.94403 12487 ft 305 kts 322°
2026-05-01 09:06 65.15170 -17.97431 12069 ft 292 kts 322°
2026-05-01 09:07 65.16746 -18.00292 11789 ft 287 kts 322°
2026-05-01 09:07 65.18353 -18.03219 11399 ft 291 kts 322°
2026-05-01 09:07 65.19954 -18.06132 11011 ft 288 kts 322°
2026-05-01 09:07 65.21540 -18.09029 10638 ft 287 kts 322°
2026-05-01 09:08 65.23118 -18.11911 10264 ft 285 kts 322°
2026-05-01 09:08 65.24686 -18.14784 9878 ft 283 kts 322°
2026-05-01 09:08 65.26239 -18.17629 9519 ft 278 kts 322°
2026-05-01 09:08 65.27746 -18.20336 9179 ft 261 kts 325°
2026-05-01 09:09 65.29305 -18.22195 8852 ft 242 kts 342°
2026-05-01 09:09 65.30897 -18.22985 8551 ft 227 kts 355°
2026-05-01 09:09 65.32440 -18.22842 8285 ft 221 kts
2026-05-01 09:09 65.33918 -18.21856 8004 ft 221 kts 22°
2026-05-01 09:10 65.35245 -18.20099 7717 ft 221 kts 36°
2026-05-01 09:10 65.36381 -18.17612 7428 ft 222 kts 49°
2026-05-01 09:10 65.37314 -18.14676 7134 ft 222 kts 53°
2026-05-01 09:10 65.38232 -18.11867 6862 ft 223 kts 51°
2026-05-01 09:11 65.39186 -18.08934 6553 ft 222 kts 51°
2026-05-01 09:11 65.40348 -18.06670 6227 ft 215 kts 28°
2026-05-01 09:11 65.41733 -18.05442 6031 ft 210 kts 10°
2026-05-01 09:11 65.43155 -18.05307 5877 ft 205 kts 357°
2026-05-01 09:12 65.44602 -18.05396 5980 ft 212 kts 356°
2026-05-01 09:12 65.46084 -18.05447 5540 ft 207 kts 355°
2026-05-01 09:12 65.47480 -18.05541 5256 ft 197 kts 354°
2026-05-01 09:12 65.48842 -18.05749 5067 ft 196 kts 349°
2026-05-01 09:13 65.50186 -18.06123 4919 ft 192 kts 352°
2026-05-01 09:13 65.51500 -18.06271 4829 ft 185 kts 354°
2026-05-01 09:13 65.52799 -18.06396 4387 ft 188 kts 355°
2026-05-01 09:13 65.54066 -18.06453 3899 ft 176 kts 354°
2026-05-01 09:14 65.55253 -18.06575 3483 ft 163 kts 354°
2026-05-01 09:14 65.56327 -18.06627 3080 ft 148 kts 354°
2026-05-01 09:14 65.57320 -18.06729 2700 ft 137 kts 354°
2026-05-01 09:14 65.58242 -18.06776 2333 ft 133 kts 355°
2026-05-01 09:15 65.59149 -18.06864 1969 ft 127 kts 353°
2026-05-01 09:15 65.60041 -18.06927 1628 ft 126 kts 353°
2026-05-01 09:15 65.60911 -18.06996 1331 ft 125 kts 354°
2026-05-01 09:15 65.61788 -18.07047 1046 ft 124 kts 355°
2026-05-01 09:16 65.62669 -18.06936 689 ft 126 kts
2026-05-01 09:16 65.63534 -18.06817 317 ft 121 kts 358°
2026-05-01 09:16 65.64350 -18.06949 114 ft 114 kts 351°
2026-05-01 09:17 65.65636 -18.07193 12 ft 58 kts 353°
2026-05-01 09:17 65.65889 -18.07221 11 ft 27 kts
2026-05-01 09:17 65.65855 -18.07241 12 ft 17 kts 174°
2026-05-01 09:18 65.65711 -18.07210 13 ft 24 kts 175°
2026-05-01 09:18 65.65478 -18.07309 11 ft 11 kts 275°
2026-05-01 09:19 65.65448 -18.07465 11 ft 0 kts 28°